When you browse on this site, cookies collect data to enhance your experience and personalize the content and advertising you see.
Visit our Privacy Policy to learn more. By continuing to use the site, you agree to this use of cookies and data.
  • In United Kingdom
  • List of Countries
  • For 7 days
  • Water Temperature
  • Weather Map
  • Weather Widgets
  • user-avatar
    Login

    Hourly Weather Luanda

    Today, 29 May, Friday

    Time Temperature Precipitation Wind Pressure Humidity
    00:00 +22°C° 0 mm 3 mps 754 mmHg 93%
    01:00 +23°C° 0 mm 2 mps 754 mmHg 94%
    02:00 +23°C° 0 mm 2 mps 754 mmHg 94%
    03:00 +23°C° 0 mm 2 mps 753 mmHg 94%
    04:00 +23°C° 0 mm 2 mps 753 mmHg 94%
    05:00 +23°C° 0 mm 2 mps 754 mmHg 92%
    06:00 +23°C° 0 mm 2 mps 754 mmHg 91%
    07:00 +24°C° 0 mm 2 mps 754 mmHg 89%
    08:00 +26°C° 0 mm 2 mps 755 mmHg 80%
    09:00 +28°C° 0 mm 2 mps 755 mmHg 70%
    10:00 +30°C° 0 mm 1 mps 755 mmHg 61%
    11:00 +32°C° 0 mm 2 mps 754 mmHg 56%
    12:00 +34°C° 0 mm 3 mps 753 mmHg 51%
    13:00 +36°C° 0 mm 4 mps 753 mmHg 46%
    14:00 +35°C° 0 mm 5 mps 752 mmHg 50%
    15:00 +34°C° 0 mm 5 mps 751 mmHg 54%
    16:00 +33°C° 0 mm 6 mps 751 mmHg 58%
    17:00 +30°C° 0 mm 5 mps 751 mmHg 67%
    18:00 +28°C° 0 mm 5 mps 752 mmHg 75%
    19:00 +26°C° 0 mm 5 mps 752 mmHg 84%
    20:00 +25°C° 0 mm 4 mps 752 mmHg 87%
    21:00 +25°C° 0 mm 3 mps 753 mmHg 90%
    22:00 +24°C° 0 mm 2 mps 753 mmHg 94%
    23:00 +24°C° 0 mm 2 mps 753 mmHg 94%

    Tomorrow, 30 May, Saturday

    Time Temperature Precipitation Wind Pressure Humidity
    00:00 +24°C° 0 mm 2 mps 753 mmHg 94%
    01:00 +23°C° 0 mm 1 mps 753 mmHg 95%
    02:00 +23°C° 0 mm 1 mps 753 mmHg 95%
    03:00 +23°C° 0 mm 1 mps 753 mmHg 95%
    04:00 +20°C° 0 mm 0 mps 753 mmHg 95%
    05:00 +23°C° 0 mm 1 mps 753 mmHg 93%
    06:00 +24°C° 0 mm 1 mps 753 mmHg 91%
    07:00 +24°C° 0 mm 1 mps 754 mmHg 89%
    08:00 +26°C° 0 mm 1 mps 754 mmHg 78%
    09:00 +29°C° 0 mm 1 mps 754 mmHg 67%
    10:00 +29°C° 0 mm 0 mps 754 mmHg 57%
    11:00 +32°C° 0 mm 1 mps 753 mmHg 52%
    12:00 +34°C° 0 mm 2 mps 753 mmHg 48%
    13:00 +36°C° 0 mm 3 mps 752 mmHg 44%
    14:00 +34°C° 0 mm 4 mps 752 mmHg 50%
    15:00 +33°C° 0 mm 4 mps 752 mmHg 56%
    16:00 +32°C° 0 mm 5 mps 751 mmHg 62%
    17:00 +29°C° 0 mm 5 mps 752 mmHg 69%
    18:00 +28°C° 0 mm 5 mps 752 mmHg 77%
    19:00 +26°C° 0 mm 5 mps 752 mmHg 84%
    20:00 +25°C° 0 mm 4 mps 753 mmHg 87%
    21:00 +25°C° 0 mm 3 mps 753 mmHg 90%
    22:00 +24°C° 0 mm 2 mps 754 mmHg 93%
    23:00 +24°C° 0 mm 2 mps 754 mmHg 94%

    Day after tomorrow, 31 May, Sunday

    Time Temperature Precipitation Wind Pressure Humidity
    00:00 +24°C° 0 mm 2 mps 754 mmHg 94%
    01:00 +23°C° 0 mm 2 mps 754 mmHg 95%
    02:00 +23°C° 0 mm 1 mps 754 mmHg 95%
    03:00 +23°C° 0 mm 1 mps 753 mmHg 95%
    04:00 +22°C° 0 mm 1 mps 753 mmHg 95%
    05:00 +23°C° 0 mm 1 mps 754 mmHg 94%
    06:00 +23°C° 0 mm 1 mps 754 mmHg 93%
    07:00 +24°C° 0 mm 2 mps 754 mmHg 92%
    08:00 +26°C° 0 mm 2 mps 755 mmHg 81%
    09:00 +28°C° 0 mm 1 mps 755 mmHg 70%
    10:00 +31°C° 0 mm 1 mps 755 mmHg 59%
    11:00 +32°C° 0 mm 2 mps 755 mmHg 55%
    12:00 +34°C° 0 mm 3 mps 754 mmHg 52%
    13:00 +35°C° 0 mm 4 mps 754 mmHg 49%
    14:00 +34°C° 0 mm 4 mps 753 mmHg 55%
    15:00 +32°C° 0 mm 4 mps 752 mmHg 61%
    16:00 +30°C° 0 mm 5 mps 752 mmHg 68%
    17:00 +29°C° 0 mm 5 mps 752 mmHg 75%
    18:00 +27°C° 0 mm 4 mps 753 mmHg 82%
    19:00 +26°C° 0 mm 4 mps 753 mmHg 88%
    20:00 +25°C° 0 mm 3 mps 754 mmHg 91%
    21:00 +24°C° 0 mm 2 mps 754 mmHg 93%
    22:00 +24°C° 0 mm 2 mps 755 mmHg 95%
    23:00 +24°C° 0 mm 1 mps 755 mmHg 95%

    1 June, Monday

    Time Temperature Precipitation Wind Pressure Humidity
    00:00 +24°C° 0 mm 1 mps 755 mmHg 95%
    01:00 +23°C° 0 mm 1 mps 755 mmHg 95%
    02:00 +23°C° 0 mm 1 mps 754 mmHg 96%
    03:00 +23°C° 0 mm 1 mps 754 mmHg 96%
    04:00 +23°C° 0 mm 1 mps 754 mmHg 96%
    05:00 +23°C° 0 mm 2 mps 754 mmHg 95%
    06:00 +23°C° 0 mm 2 mps 754 mmHg 94%
    07:00 +24°C° 0 mm 2 mps 754 mmHg 93%
    08:00 +26°C° 0 mm 2 mps 754 mmHg 82%
    09:00 +29°C° 0 mm 2 mps 755 mmHg 70%
    10:00 +31°C° 0 mm 1 mps 755 mmHg 58%
    11:00 +32°C° 0 mm 2 mps 754 mmHg 55%
    12:00 +34°C° 0 mm 3 mps 753 mmHg 52%
    13:00 +35°C° 0 mm 4 mps 753 mmHg 49%
    14:00 +34°C° 0 mm 4 mps 752 mmHg 56%
    15:00 +32°C° 0 mm 5 mps 752 mmHg 63%
    16:00 +29°C° 0 mm 5 mps 752 mmHg 69%
    17:00 +28°C° 0 mm 5 mps 752 mmHg 76%
    18:00 +27°C° 0 mm 5 mps 752 mmHg 82%
    19:00 +26°C° 0 mm 4 mps 753 mmHg 89%
    20:00 +26°C° 0 mm 3 mps 753 mmHg 91%
    21:00 +25°C° 0 mm 2 mps 754 mmHg 93%
    22:00 +25°C° 0 mm 2 mps 754 mmHg 95%
    23:00 +24°C° 0 mm 2 mps 755 mmHg 96%

    2 June, Tuesday

    Time Temperature Precipitation Wind Pressure Humidity
    00:00 +24°C° 0 mm 2 mps 755 mmHg 96%
    01:00 +24°C° 0 mm 2 mps 755 mmHg 97%
    02:00 +24°C° 0 mm 2 mps 754 mmHg 97%
    03:00 +24°C° 0 mm 2 mps 754 mmHg 97%
    04:00 +24°C° 0 mm 2 mps 754 mmHg 97%
    05:00 +24°C° 0 mm 2 mps 754 mmHg 96%
    06:00 +24°C° 0 mm 2 mps 754 mmHg 95%
    07:00 +24°C° 0 mm 3 mps 755 mmHg 94%
    08:00 +26°C° 0 mm 2 mps 755 mmHg 83%
    09:00 +29°C° 0 mm 1 mps 755 mmHg 72%
    10:00 +31°C° 0 mm 1 mps 755 mmHg 61%
    11:00 +32°C° 0 mm 2 mps 754 mmHg 57%
    12:00 +34°C° 0 mm 2 mps 753 mmHg 52%
    13:00 +35°C° 0 mm 3 mps 753 mmHg 48%
    14:00 +34°C° 0 mm 4 mps 752 mmHg 54%
    15:00 +33°C° 0 mm 4 mps 752 mmHg 59%
    16:00 +32°C° 0 mm 5 mps 751 mmHg 64%
    17:00 +29°C° 0 mm 5 mps 752 mmHg 71%
    18:00 +28°C° 0 mm 5 mps 752 mmHg 78%
    19:00 +26°C° 0 mm 5 mps 753 mmHg 86%
    20:00 +26°C° 0 mm 4 mps 753 mmHg 89%
    21:00 +25°C° 0 mm 3 mps 753 mmHg 92%
    22:00 +24°C° 0 mm 1 mps 754 mmHg 95%
    23:00 +24°C° 0 mm 1 mps 754 mmHg 95%

    3 June, Wednesday

    Time Temperature Precipitation Wind Pressure Humidity
    00:00 +24°C° 0 mm 1 mps 754 mmHg 96%
    01:00 +24°C° 0 mm 1 mps 753 mmHg 96%
    02:00 +24°C° 0 mm 1 mps 753 mmHg 96%
    03:00 +24°C° 0 mm 1 mps 753 mmHg 96%
    04:00 +23°C° 0 mm 1 mps 753 mmHg 96%
    05:00 +24°C° 0 mm 1 mps 753 mmHg 95%
    06:00 +24°C° 0 mm 2 mps 754 mmHg 93%
    07:00 +25°C° 0 mm 2 mps 754 mmHg 92%
    08:00 +26°C° 0 mm 2 mps 754 mmHg 83%
    09:00 +28°C° 0 mm 1 mps 754 mmHg 74%
    10:00 +30°C° 0 mm 1 mps 754 mmHg 65%
    11:00 +31°C° 0 mm 1 mps 754 mmHg 59%
    12:00 +32°C° 0 mm 2 mps 753 mmHg 54%
    13:00 +35°C° 0 mm 3 mps 752 mmHg 48%
    14:00 +34°C° 0 mm 3 mps 752 mmHg 53%
    15:00 +33°C° 0 mm 4 mps 751 mmHg 58%
    16:00 +30°C° 0 mm 4 mps 751 mmHg 64%
    17:00 +29°C° 0 mm 4 mps 751 mmHg 71%
    18:00 +27°C° 0 mm 4 mps 752 mmHg 78%
    19:00 +26°C° 0 mm 4 mps 752 mmHg 86%
    20:00 +25°C° 0 mm 3 mps 753 mmHg 88%
    21:00 +25°C° 0 mm 3 mps 753 mmHg 91%
    22:00 +24°C° 0 mm 2 mps 754 mmHg 94%
    23:00 +24°C° 0 mm 2 mps 754 mmHg 94%
    Show more